Weather in Shahan

Kazakhstan     49°49′06″N   72°39′14″E
temp.,
°C
wind,
m/s
gust,
m/s
humid.,
%
clouds,
%
prec.,
mm/h
press.,
hPa
HPBL,
m
24 january, mon
mon2400:00−16ene3487100 0.0 103547
03:00−15ene3789100 0.0 103599
06:00−14ne51087100 0.0 1035178
09:00−15ene5128795 0.0 1036228
12:00−12ene6138564 0.0 1036305
15:00−9ene6118362 0.0 1035336
18:00−12ene5118547 0.0 1037186
21:00−15ene4118711 0.0 1038155
25 january, tue
tue2500:00−17e36895 0.0 103863
03:00−19ene33935 0.0 103829
06:00−21ese22955 0.0 103810
09:00−23ese22965 0.0 103911
12:00−14ese12807 0.0 103672
15:00−10wnw117680 0.0 103489
18:00−15ssw228989 0.0 10349
21:00−20s22945 0.0 103613
26 january, wed
wed2600:00−19ssw2290100 0.0 103518
03:00−16ssw3886100 0.0 1034110
06:00−15sw4991100 0.0 1033163
09:00−14sw4892100 0.0 1033167
12:00−12wsw5785100 0.0 1033254
15:00−11wsw468285 0.0 1033281
18:00−14wsw3590100 0.0 103566
21:00−17sw229495 0.0 103719
27 january, thu
thu2700:00−20ssw22979 0.0 103817
03:00−22s229618 0.0 103912
06:00−23s22965 0.0 103910
09:00−23sse22965 0.0 104010
12:00−14se22795 0.0 103788
15:00−10sse12760 0.0 1035112
18:00−16ese22885 0.0 10369
21:00−20ese22925 0.0 10379
28 january, fri
fri2800:00−21ese22915 0.0 103614
03:00−21ese22894 0.0 103512
06:00−21e22885 0.0 103415
09:00−21e22855 0.0 103313
12:00−11e357399 0.0 1029106
15:00−7e3675100 0.0 1026151
18:00−13e337963 0.0 102731
21:00−13ese487130 0.0 102663